CSAPA EDQE-EDDN

Flight info

Callsign CSAPA
Flight time 0h 15m
Altitude 2400
Route EDQE DCT A73 HIGHWAY DCT NOVEMBER NROUTE EDDN
Aircraft C152/L-V/N

Departure

Time 2026-04-17 00:21
Airport Burg Feuerstein Airport (EDQE)

Arrival

Time 2026-04-17 00:36
Airport Nuremberg Airport (EDDN)
Time Latitude Longitude Altitude Speed Heading
2026-04-17 00:15 49.79132 11.12750 1677 ft 0 kts 85°
2026-04-17 00:16 49.79132 11.12751 1677 ft 0 kts 85°
2026-04-17 00:17 49.79132 11.12752 1677 ft 1 kts 85°
2026-04-17 00:17 49.79133 11.12764 1677 ft 2 kts 85°
2026-04-17 00:17 49.79135 11.12804 1677 ft 6 kts 85°
2026-04-17 00:17 49.79141 11.12869 1677 ft 5 kts 49°
2026-04-17 00:18 49.79152 11.12874 1677 ft 0 kts
2026-04-17 00:18 49.79165 11.12874 1677 ft 6 kts
2026-04-17 00:18 49.79238 11.12867 1677 ft 13 kts 353°
2026-04-17 00:19 49.79328 11.12852 1677 ft 13 kts 358°
2026-04-17 00:19 49.79360 11.12898 1677 ft 3 kts 82°
2026-04-17 00:19 49.79360 11.12903 1677 ft 0 kts 82°
2026-04-17 00:19 49.79364 11.12940 1677 ft 22 kts 82°
2026-04-17 00:20 49.79392 11.13455 1679 ft 69 kts 85°
2026-04-17 00:20 49.79431 11.14190 1900 ft 64 kts 84°
2026-04-17 00:20 49.79492 11.14916 2026 ft 77 kts 74°
2026-04-17 00:20 49.79836 11.15560 2204 ft 76 kts 22°
2026-04-17 00:21 49.80366 11.15544 2328 ft 79 kts 353°
2026-04-17 00:21 49.80910 11.15420 2415 ft 87 kts 347°
2026-04-17 00:21 49.81428 11.14879 2432 ft 96 kts 306°
2026-04-17 00:21 49.81598 11.13875 2442 ft 100 kts 266°
2026-04-17 00:22 49.81365 11.11785 2468 ft 102 kts 261°
2026-04-17 00:22 49.81267 11.10699 2481 ft 100 kts 262°
2026-04-17 00:22 49.81178 11.09646 2480 ft 100 kts 263°
2026-04-17 00:23 49.81039 11.08595 2462 ft 102 kts 244°
2026-04-17 00:23 49.80541 11.07817 2426 ft 103 kts 207°
2026-04-17 00:23 49.79850 11.07649 2403 ft 103 kts 174°
2026-04-17 00:23 49.79145 11.07751 2416 ft 99 kts 174°
2026-04-17 00:24 49.78448 11.07762 2331 ft 104 kts 188°
2026-04-17 00:24 49.77746 11.07475 2322 ft 103 kts 199°
2026-04-17 00:24 49.77094 11.07089 2331 ft 103 kts 201°
2026-04-17 00:24 49.76424 11.06671 2339 ft 103 kts 202°
2026-04-17 00:25 49.75763 11.06255 2368 ft 103 kts 201°
2026-04-17 00:25 49.75073 11.05897 2356 ft 105 kts 196°
2026-04-17 00:25 49.74600 11.05712 2374 ft 104 kts 192°
2026-04-17 00:25 49.73885 11.05530 2382 ft 104 kts 188°
2026-04-17 00:26 49.72928 11.05393 2395 ft 104 kts 181°
2026-04-17 00:26 49.72450 11.05405 2402 ft 104 kts 177°
2026-04-17 00:26 49.71727 11.05504 2407 ft 104 kts 174°
2026-04-17 00:26 49.71003 11.05622 2413 ft 105 kts 175°
2026-04-17 00:27 49.70272 11.05644 2409 ft 105 kts 183°
2026-04-17 00:27 49.69547 11.05483 2409 ft 105 kts 192°
2026-04-17 00:27 49.68840 11.05208 2422 ft 104 kts 195°
2026-04-17 00:27 49.68149 11.04855 2418 ft 105 kts 201°
2026-04-17 00:28 49.67481 11.04397 2424 ft 105 kts 206°
2026-04-17 00:28 49.66841 11.03857 2428 ft 105 kts 210°
2026-04-17 00:28 49.66204 11.03288 2425 ft 105 kts 211°
2026-04-17 00:28 49.65580 11.02705 2419 ft 106 kts 211°
2026-04-17 00:29 49.64950 11.02112 2416 ft 106 kts 211°
2026-04-17 00:29 49.64321 11.01533 2417 ft 105 kts 209°
2026-04-17 00:29 49.63662 11.01036 2416 ft 105 kts 204°
2026-04-17 00:29 49.62981 11.00607 2410 ft 106 kts 201°
2026-04-17 00:30 49.62295 11.00240 2413 ft 105 kts 197°
2026-04-17 00:30 49.61588 10.99933 2409 ft 106 kts 194°
2026-04-17 00:30 49.60873 10.99673 2407 ft 106 kts 193°
2026-04-17 00:30 49.60156 10.99415 2403 ft 106 kts 192°
2026-04-17 00:31 49.59432 10.99242 2406 ft 105 kts 185°
2026-04-17 00:31 49.58699 10.99162 2400 ft 106 kts 184°
2026-04-17 00:31 49.57969 10.98999 2372 ft 107 kts 195°
2026-04-17 00:31 49.57267 10.98622 2375 ft 105 kts 201°
2026-04-17 00:32 49.56594 10.98181 2368 ft 106 kts 206°
2026-04-17 00:32 49.55866 10.98075 2284 ft 111 kts 160°
2026-04-17 00:32 49.55297 10.98843 2280 ft 106 kts 130°
2026-04-17 00:32 49.54836 10.99701 2303 ft 106 kts 129°
2026-04-17 00:33 49.54277 11.00482 2186 ft 112 kts 149°
2026-04-17 00:33 49.53548 11.00843 2101 ft 107 kts 172°
2026-04-17 00:33 49.52835 11.00967 2020 ft 103 kts 175°
2026-04-17 00:33 49.52104 11.01042 1843 ft 104 kts 177°
2026-04-17 00:34 49.51414 11.01160 1765 ft 98 kts 165°
2026-04-17 00:34 49.50846 11.01640 1730 ft 90 kts 140°
2026-04-17 00:34 49.50437 11.02370 1576 ft 92 kts 121°
2026-04-17 00:34 49.50290 11.03263 1452 ft 85 kts 94°
2026-04-17 00:35 49.50242 11.04134 1338 ft 79 kts 97°
2026-04-17 00:35 49.50162 11.04963 1226 ft 76 kts 101°
2026-04-17 00:35 49.50072 11.05757 1105 ft 74 kts 98°
2026-04-17 00:35 49.50007 11.06453 1059 ft 57 kts 98°
2026-04-17 00:36 49.49953 11.06996 1049 ft 44 kts 99°
2026-04-17 00:36 49.49914 11.07375 1049 ft 28 kts 99°
2026-04-17 00:36 49.49889 11.07615 1049 ft 17 kts 107°
2026-04-17 00:36 49.49830 11.07678 1049 ft 6 kts 161°
2026-04-17 00:37 49.49803 11.07692 1049 ft 2 kts 161°
2026-04-17 00:37 49.49799 11.07694 1049 ft 1 kts 161°
2026-04-17 00:37 49.49770 11.07710 1049 ft 6 kts 161°
2026-04-17 00:37 49.49730 11.07731 1049 ft 5 kts 161°
2026-04-17 00:38 49.49692 11.07751 1049 ft 6 kts 161°
2026-04-17 00:38 49.49646 11.07772 1049 ft 8 kts 170°
2026-04-17 00:38 49.49590 11.07789 1049 ft 8 kts 187°
2026-04-17 00:38 49.49580 11.07749 1049 ft 4 kts 282°
2026-04-17 00:39 49.49585 11.07712 1049 ft 3 kts 282°
2026-04-17 00:39 49.49589 11.07679 1049 ft 3 kts 282°
2026-04-17 00:39 49.49596 11.07627 1049 ft 8 kts 281°
2026-04-17 00:39 49.49607 11.07523 1049 ft 12 kts 278°
2026-04-17 00:40 49.49621 11.07379 1049 ft 15 kts 278°
2026-04-17 00:40 49.49632 11.07231 1049 ft 9 kts 252°
2026-04-17 00:40 49.49608 11.07211 1049 ft 2 kts 192°
2026-04-17 00:40 49.49591 11.07207 1049 ft 3 kts 191°
2026-04-17 00:41 49.49548 11.07195 1049 ft 9 kts 182°
2026-04-17 00:41 49.49493 11.07209 1049 ft 7 kts 116°
2026-04-17 00:41 49.49484 11.07275 1049 ft 6 kts 101°
2026-04-17 00:41 49.49477 11.07337 1049 ft 6 kts 99°
2026-04-17 00:42 49.49471 11.07392 1049 ft 6 kts 99°
2026-04-17 00:42 49.49456 11.07428 1049 ft 2 kts 105°
2026-04-17 00:42 49.49486 11.07466 1049 ft 7 kts
2026-04-17 00:42 49.49499 11.07469 1049 ft 0 kts